Regional Weather Roundup
Issued by NWS

Home | Current Version | Previous Version | Text Only | Print | Product List | Glossary Off
Versions: 1 2 3 4 5 6 7 8 9 10 11 12 13 14 15 16 17 18 19 20 21 22 23 24 25 26 27 28 29 30 31 32 33 34 35 36 37 38 39 40 41 42 43 44 45 46 47 48 49 50

000
ASUS43 KIND 291159
RWRIN

WEATHER ROUNDUP FOR INDIANA
NATIONAL WEATHER SERVICE INDIANAPOLIS IN
800 AM EDT SAT AUG 29 2015

NOTE: "FAIR" INDICATES FEW OR NO CLOUDS BELOW 12,000 FEET WITH NO
SIGNIFICANT WEATHER AND/OR OBSTRUCTIONS TO VISIBILITY.

* - STATION DOES NOT REPORT WEATHER SUCH AS PRECIPITATION OR FOG.

+ - STATION NOT QUALITY CONTROLLED BY THE NATIONAL WEATHER SERVICE.
    USE DATA WITH CAUTION...ESPECIALLY DEWPOINT AND RELATIVE
    HUMIDITY OBSERVATIONS.

INZ001>003-010>013-019-020-291300-
NORTHWEST INDIANA

CITY           SKY/WX    TMP DP  RH WIND       PRES   REMARKS
GARY /AIRPORT/ CLOUDY    66  59  77 SE6       30.06R
KNOX *+        CLOUDY    63  59  88 SE5       30.08R
MONTICELLO +   CLOUDY    65  61  86 SE3       30.07R
6HR MIN TEMP:  64; 6HR MAX TEMP:  66;

RENSSELAER +   CLOUDY    63  63 100 E3        30.07R

$$

LMZ046-743>745-291300-
SOUTHERN LAKE MICHIGAN

STATION/POSITION TIME  TEMP    WIND        PRES    WAVE
                       AIR SEA DIR/SP/G            HT
                 (UTC) (F)     (DEG/KT/KT) (MB)    (FT)
BURNS HARBOR     1100   68     160/ 11/ 14 1017.9S
MICHIGAN CITY    1100   66     130/ 10/ 12   N/A
5NW MICH CITY    1100   68 70  170/ 10/ 12   N/A     1

$$

INZ004-005-014>016-021>024-291300-
NORTH CENTRAL INDIANA

CITY           SKY/WX    TMP DP  RH WIND       PRES   REMARKS
ELKHART        CLOUDY    64  59  82 CALM      30.10S
GOSHEN         CLOUDY    64  59  83 E3        30.10R
6HR MIN TEMP:  62; 6HR MAX TEMP:  65;

SOUTH BEND     CLOUDY    65  58  78 SE7       30.10R
6HR MIN TEMP:  65; 6HR MAX TEMP:  68;


$$

INZ006>009-017-018-025>027-291300-
NORTHEAST INDIANA

CITY           SKY/WX    TMP DP  RH WIND       PRES   REMARKS
ANGOLA *+      MOCLDY    63  54  72 CALM      30.13R
FORT WAYNE     CLOUDY    64  60  87 CALM      30.12R
6HR MIN TEMP:  61; 6HR MAX TEMP:  65;


$$

INZ028-029-035-036-043>045-051>053-291300-
WEST CENTRAL INDIANA

CITY           SKY/WX    TMP DP  RH WIND       PRES   REMARKS
CRAWFORDSVL +  MOCLDY    63  58  85 SE3       30.08S
6HR MIN TEMP:  59; 6HR MAX TEMP:  63;

GREENCASTLE +  MOCLDY    63  57  82 CALM      30.09S
LAFAYETTE      CLOUDY    65  60  84 CALM      30.07R
6HR MIN TEMP:  63; 6HR MAX TEMP:  65;

TERRE HAUTE    CLOUDY    66  61  84 CALM      30.07R
6HR MIN TEMP:  63; 6HR MAX TEMP:  66;


$$

INZ030>032-037>040-046>048-054>057-064-065-291300-
CENTRAL INDIANA

CITY           SKY/WX    TMP DP  RH WIND       PRES   REMARKS
FRANKFORT +    CLOUDY   N/A N/A N/A CALM      30.10R
GREENWOOD *+   PTCLDY    64  57  77 S7        30.11R
INDIANAPOLIS   MOCLDY    66  59  78 SE6       30.08R
6HR MIN TEMP:  65; 6HR MAX TEMP:  67;

-EAGLE CREEK   MOCLDY    67  60  78 S5        30.09R
6HR MIN TEMP:  65; 6HR MAX TEMP:  67;

KOKOMO *+      CLOUDY    63  57  82 SE5       30.09S
6HR MIN TEMP:  61; 6HR MAX TEMP:  63;

MT COMFORT *+  PTCLDY    64  61  88 S6        30.11R
SHELBYVILLE    MOCLDY    68  61  78 S7        30.10R
6HR MIN TEMP:  63; 6HR MAX TEMP:  68;


$$

INZ033-034-041-042-049-050-058-059-291300-
EAST CENTRAL INDIANA

CITY           SKY/WX    TMP DP  RH WIND       PRES   REMARKS
MUNCIE         MOCLDY    66  59  78 S7        30.11R
6HR MIN TEMP:  63; 6HR MAX TEMP:  66;


$$

INZ060-061-067>069-081>083-085>088-291300-
SOUTHWEST INDIANA

CITY           SKY/WX    TMP DP  RH WIND       PRES   REMARKS
EVANSVILLE     CLOUDY    70  65  84 CALM      30.10R
6HR MIN TEMP:  67; 6HR MAX TEMP:  70;

HUNTINGBURG *+ CLOUDY    70  63  78 S5        30.11R
6HR MIN TEMP:  66; 6HR MAX TEMP:  70;


$$

INZ062-063-066-070>080-084-089>092-291300-
SOUTH CENTRAL AND SOUTHEAST INDIANA

CITY           SKY/WX    TMP DP  RH WIND       PRES   REMARKS
BLOOMINGTON    MOCLDY    66  61  84 SE6       30.10R
6HR MIN TEMP:  62; 6HR MAX TEMP:  67;

MADISON *+     MOCLDY    68  63  83 S6        30.16R
SEYMOUR +      CLOUDY    64  63  94 CALM      30.12R

$$




USA.gov is the U.S. government's official web portal to all federal, state and local government web resources and services.